Quincy, IL

2:54 AM CDT on March 26, 2017 (GMT -0500)
Quincy Regional-Baldwin

Weather History for KUIN - March, 2013

Change the Weather History Date:

Wednesday, March 20, 2013

  Actual Average Record
Temperature  
Mean Temperature 25 °F 44 °F  
Max Temperature 32 °F 53 °F 81 °F (2012)
Min Temperature 18 °F 34 °F 3 °F (1906)
Degree Days  
Heating Degree Days 40 22  
Month to date heating degree days 630 507  
Since 1 July heating degree days 4741 4849  
Cooling Degree Days 0 0  
Month to date cooling degree days 0 0  
Year to date cooling degree days 0 0  
Moisture  
Dew Point 11 °F    
Average Humidity 53    
Maximum Humidity 69    
Minimum Humidity 36    
Precipitation  
Precipitation 0.00 in 0.08 in 2.10 in (1945)
Month to date precipitation 2.11 1.53  
Year to date precipitation 7.58 4.93  
Sea Level Pressure  
Sea Level Pressure 30.23 in    
Wind  
Wind Speed 15 mph (NW)    
Max Wind Speed 26 mph    
Max Gust Speed 32 mph    
Visibility 10 miles    
Events      
T = Trace of Precipitation, MM = Missing Value Source: NWS Daily Summary

Daily Weather History Graph

Daily Weather History Graph

Search for Another Location

Airport or City:

Trip Planner

Search our weather history database for the weather conditions in past years. The results will help you decide how hot, cold, wet, or windy it might be!

Date:

Astronomy

Mar. 20, 2013 Rise Set
Actual Time 7:07 AM CDT 7:17 PM CDT
Civil Twilight 6:40 AM CDT 7:44 PM CDT
Nautical Twilight 6:09 AM CDT 8:15 PM CDT
Astronomical Twilight 5:37 AM CDT 8:47 PM CDT
Moon 12:52 PM CDT (3/20) 2:47 AM CDT (3/20)
Length of Visible Light 13h 03m
Length of Day
12h 09m
First Quarter, 59% of the Moon is Illuminated
Mar 20
First Quarter
Mar 27
Full
Apr 2
Last Quarter
Apr 10
New
Apr 18
First Quarter

Hourly Weather History & Observations

Time (CDT) Temp. Windchill Dew Point Humidity Pressure Visibility Wind Dir Wind Speed Gust Speed Precip Events Conditions
12:54 AM 30.9 °F 22.2 °F 21.0 °F 67% 30.19 in 10.0 mi NW 10.4 mph - N/A   Clear
1:54 AM 28.0 °F 19.3 °F 18.0 °F 66% 30.20 in 10.0 mi NNW 9.2 mph - N/A   Clear
2:54 AM 26.1 °F 17.6 °F 18.0 °F 71% 30.20 in 10.0 mi NW 8.1 mph - N/A   Clear
3:54 AM 28.0 °F 14.6 °F 19.0 °F 69% 30.21 in 10.0 mi NW 20.7 mph - N/A   Partly Cloudy
4:17 AM 28.4 °F 15.8 °F 19.4 °F 69% 30.19 in 10.0 mi NNW 18.4 mph 24.2 mph N/A   Mostly Cloudy
4:54 AM 25.0 °F 11.3 °F 16.0 °F 69% 30.22 in 10.0 mi NNW 18.4 mph 29.9 mph N/A   Overcast
5:22 AM 23.0 °F 7.2 °F 14.0 °F 68% 30.21 in 10.0 mi NNW 23.0 mph 29.9 mph N/A   Scattered Clouds
5:54 AM 21.9 °F 7.3 °F 10.9 °F 63% 30.25 in 10.0 mi NNW 18.4 mph - N/A   Clear
6:54 AM 19.9 °F 5.2 °F 10.0 °F 65% 30.28 in 10.0 mi NNW 17.3 mph - N/A   Partly Cloudy
7:44 AM 17.6 °F 2.7 °F 8.6 °F 68% 30.27 in 10.0 mi NNW 16.1 mph 27.6 mph N/A   Mostly Cloudy
7:54 AM 19.0 °F 4.0 °F 9.0 °F 65% 30.30 in 10.0 mi NNW 17.3 mph - N/A   Mostly Cloudy
8:10 AM 19.4 °F 5.5 °F 8.6 °F 63% 30.27 in 10.0 mi NNW 15.0 mph - N/A   Overcast
8:54 AM 21.0 °F 6.2 °F 10.9 °F 65% 30.30 in 10.0 mi NW 18.4 mph 23.0 mph N/A   Overcast
9:19 AM 21.2 °F 5.2 °F 10.4 °F 63% 30.27 in 10.0 mi NW 21.9 mph 31.1 mph N/A   Overcast
9:54 AM 23.0 °F 7.6 °F 9.0 °F 55% 30.30 in 10.0 mi NNW 21.9 mph 29.9 mph N/A   Overcast
10:54 AM 24.1 °F 8.7 °F 6.1 °F 46% 30.31 in 10.0 mi NW 23.0 mph 32.2 mph N/A   Scattered Clouds
11:54 AM 26.1 °F 12.7 °F 7.0 °F 44% 30.30 in 10.0 mi WNW 18.4 mph 28.8 mph N/A   Partly Cloudy
12:54 PM 28.0 °F 15.7 °F 9.0 °F 45% 30.27 in 10.0 mi NW 17.3 mph 28.8 mph N/A   Scattered Clouds
1:54 PM 28.0 °F 14.9 °F 7.0 °F 41% 30.25 in 10.0 mi WNW 19.6 mph 31.1 mph N/A   Partly Cloudy
2:54 PM 30.0 °F 17.2 °F 7.0 °F 38% 30.23 in 10.0 mi WNW 20.7 mph 29.9 mph N/A   Partly Cloudy
3:54 PM 30.0 °F 17.9 °F 7.0 °F 38% 30.20 in 10.0 mi NW 18.4 mph 29.9 mph N/A   Scattered Clouds
4:54 PM 30.0 °F 18.7 °F 8.1 °F 40% 30.19 in 10.0 mi WNW 16.1 mph 31.1 mph N/A   Scattered Clouds
5:54 PM 30.9 °F 19.4 °F 8.1 °F 38% 30.18 in 10.0 mi WNW 17.3 mph 24.2 mph N/A   Mostly Cloudy
6:54 PM 28.0 °F 15.7 °F 8.1 °F 43% 30.17 in 10.0 mi NW 17.3 mph 24.2 mph N/A   Clear
7:54 PM 26.1 °F 15.6 °F 10.0 °F 51% 30.17 in 10.0 mi NW 11.5 mph - N/A   Clear
8:54 PM 25.0 °F 15.5 °F 10.0 °F 53% 30.16 in 10.0 mi NW 9.2 mph - N/A   Clear
9:54 PM 24.1 °F 14.4 °F 10.0 °F 55% 30.15 in 10.0 mi NNW 9.2 mph - N/A   Clear
10:54 PM 21.9 °F 11.0 °F 10.0 °F 60% 30.16 in 10.0 mi NNW 10.4 mph - N/A   Clear
11:54 PM 19.9 °F 12.1 °F 10.9 °F 68% 30.15 in 10.0 mi NNW 5.8 mph - N/A   Clear